Time,TemperatureF,DewpointF,PressureIn,WindDirection,WindDirectionDegrees,WindSpeedMPH,WindSpeedGustMPH,Humidity,HourlyPrecipIn,Conditions,Clouds,dailyrainin,SoftwareType,DateUTC
2013-07-30 00:11:00,60.1,57.0,30.11,West,275,1.0,-999.0,88,-99.99,,,0.00,weatherlink.com 1.10,2013-07-30 04:11:00,
2013-07-30 00:26:00,59.8,56.0,30.12,SSW,196,0.0,-999.0,88,-99.99,,,0.00,weatherlink.com 1.10,2013-07-30 04:26:00,
2013-07-30 00:41:00,59.4,56.0,30.12,SSW,196,0.0,-999.0,89,-99.99,,,0.00,weatherlink.com 1.10,2013-07-30 04:41:00,
2013-07-30 00:56:00,59.0,56.0,30.12,SSW,196,0.0,-999.0,89,-99.99,,,0.00,weatherlink.com 1.10,2013-07-30 04:56:00,
2013-07-30 01:41:00,58.4,56.0,30.13,WSW,237,0.0,-999.0,90,-99.99,,,0.00,weatherlink.com 1.10,2013-07-30 05:41:00,
2013-07-30 01:56:00,58.1,55.0,30.13,WSW,240,0.0,-999.0,90,-99.99,,,0.00,weatherlink.com 1.10,2013-07-30 05:56:00,
2013-07-30 02:11:00,57.9,55.0,30.13,WSW,243,0.0,-999.0,90,-99.99,,,0.00,weatherlink.com 1.10,2013-07-30 06:11:00,
2013-07-30 02:26:00,57.7,55.0,30.13,WSW,244,0.0,-999.0,91,-99.99,,,0.00,weatherlink.com 1.10,2013-07-30 06:26:00,
2013-07-30 02:41:00,57.7,55.0,30.13,WSW,245,0.0,-999.0,91,-99.99,,,0.00,weatherlink.com 1.10,2013-07-30 06:41:00,
2013-07-30 02:56:00,57.7,55.0,30.13,WSW,246,0.0,-999.0,91,-99.99,,,0.00,weatherlink.com 1.10,2013-07-30 06:56:00,
2013-07-30 03:11:00,57.6,55.0,30.13,WSW,248,0.0,-999.0,91,-99.99,,,0.00,weatherlink.com 1.10,2013-07-30 07:11:00,
2013-07-30 03:26:00,57.5,55.0,30.14,WSW,248,0.0,-999.0,91,-99.99,,,0.00,weatherlink.com 1.10,2013-07-30 07:26:00,
2013-07-30 03:41:00,57.7,55.0,30.14,WSW,240,4.0,-999.0,92,-99.99,,,0.00,weatherlink.com 1.10,2013-07-30 07:41:00,
2013-07-30 03:56:00,57.9,55.0,30.14,West,264,0.0,-999.0,91,-99.99,,,0.00,weatherlink.com 1.10,2013-07-30 07:56:00,
2013-07-30 04:11:00,57.9,55.0,30.14,West,259,0.0,-999.0,91,-99.99,,,0.00,weatherlink.com 1.10,2013-07-30 08:11:00,
2013-07-30 04:26:00,57.8,55.0,30.14,West,259,0.0,-999.0,91,-99.99,,,0.00,weatherlink.com 1.10,2013-07-30 08:26:00,
2013-07-30 04:41:00,57.7,55.0,30.14,West,259,0.0,-999.0,91,-99.99,,,0.00,weatherlink.com 1.10,2013-07-30 08:41:00,
2013-07-30 05:11:00,57.3,55.0,30.14,West,259,0.0,-999.0,92,-99.99,,,0.00,weatherlink.com 1.10,2013-07-30 09:11:00,
2013-07-30 05:26:00,57.1,55.0,30.15,West,259,0.0,-999.0,92,-99.99,,,0.00,weatherlink.com 1.10,2013-07-30 09:26:00,
2013-07-30 05:41:00,56.7,55.0,30.15,West,259,0.0,-999.0,92,-99.99,,,0.00,weatherlink.com 1.10,2013-07-30 09:41:00,
2013-07-30 05:56:00,56.5,54.0,30.15,West,259,0.0,-999.0,92,-99.99,,,0.00,weatherlink.com 1.10,2013-07-30 09:56:00,
2013-07-30 06:11:00,56.4,54.0,30.15,West,259,0.0,-999.0,92,-99.99,,,0.00,weatherlink.com 1.10,2013-07-30 10:11:00,
2013-07-30 06:26:00,56.3,54.0,30.15,West,259,0.0,-999.0,92,-99.99,,,0.00,weatherlink.com 1.10,2013-07-30 10:26:00,
2013-07-30 06:41:00,56.4,55.0,30.15,West,259,0.0,-999.0,93,-99.99,,,0.00,weatherlink.com 1.10,2013-07-30 10:41:00,
2013-07-30 06:56:00,56.7,55.0,30.16,West,259,0.0,-999.0,93,-99.99,,,0.00,weatherlink.com 1.10,2013-07-30 10:56:00,
2013-07-30 07:11:00,56.9,55.0,30.16,West,259,0.0,-999.0,93,-99.99,,,0.00,weatherlink.com 1.10,2013-07-30 11:11:00,
2013-07-30 07:26:00,57.3,56.0,30.17,West,259,0.0,-999.0,94,-99.99,,,0.00,weatherlink.com 1.10,2013-07-30 11:26:00,
2013-07-30 07:41:00,57.8,56.0,30.17,West,259,0.0,-999.0,93,-99.99,,,0.00,weatherlink.com 1.10,2013-07-30 11:41:00,
2013-07-30 07:56:00,58.7,57.0,30.18,WSW,254,0.0,-999.0,93,-99.99,,,0.00,weatherlink.com 1.10,2013-07-30 11:56:00,
2013-07-30 08:11:00,59.0,57.0,30.18,West,264,0.0,-999.0,93,-99.99,,,0.00,weatherlink.com 1.10,2013-07-30 12:11:00,
2013-07-30 08:26:00,59.8,58.0,30.18,WSW,248,0.0,-999.0,92,-99.99,,,0.00,weatherlink.com 1.10,2013-07-30 12:26:00,
2013-07-30 08:41:00,60.8,58.0,30.18,WSW,246,0.0,-999.0,91,-99.99,,,0.00,weatherlink.com 1.10,2013-07-30 12:41:00,
2013-07-30 08:56:00,62.1,59.0,30.18,WSW,237,1.0,-999.0,88,-99.99,,,0.00,weatherlink.com 1.10,2013-07-30 12:56:00,
2013-07-30 09:26:00,64.5,59.0,30.19,WSW,252,1.0,-999.0,82,-99.99,,,0.00,weatherlink.com 1.10,2013-07-30 13:26:00,
2013-07-30 09:41:00,65.1,59.0,30.18,SW,234,0.0,-999.0,81,-99.99,,,0.00,weatherlink.com 1.10,2013-07-30 13:41:00,
2013-07-30 09:56:00,67.3,60.0,30.18,WSW,246,2.0,-999.0,77,-99.99,,,0.00,weatherlink.com 1.10,2013-07-30 13:56:00,
2013-07-30 10:11:00,68.7,59.0,30.18,WSW,257,1.0,-999.0,72,-99.99,,,0.00,weatherlink.com 1.10,2013-07-30 14:11:00,
2013-07-30 10:26:00,69.6,59.0,30.18,West,278,1.0,-999.0,70,-99.99,,,0.00,weatherlink.com 1.10,2013-07-30 14:26:00,
2013-07-30 10:41:00,70.6,60.0,30.18,WNW,286,0.0,-999.0,68,-99.99,,,0.00,weatherlink.com 1.10,2013-07-30 14:41:00,
2013-07-30 10:56:00,71.7,61.0,30.17,SSE,148,0.0,-999.0,69,-99.99,,,0.00,weatherlink.com 1.10,2013-07-30 14:56:00,
2013-07-30 11:11:00,72.7,61.0,30.18,West,274,0.0,-999.0,67,-99.99,,,0.00,weatherlink.com 1.10,2013-07-30 15:11:00,
2013-07-30 11:26:00,72.5,61.0,30.18,WNW,294,1.0,-999.0,68,-99.99,,,0.00,weatherlink.com 1.10,2013-07-30 15:26:00,
2013-07-30 11:41:00,73.1,61.0,30.18,West,265,0.0,-999.0,65,-99.99,,,0.00,weatherlink.com 1.10,2013-07-30 15:41:00,
2013-07-30 12:11:00,75.6,61.0,30.17,WSW,245,0.0,-999.0,61,-99.99,,,0.00,weatherlink.com 1.10,2013-07-30 16:11:00,
2013-07-30 12:26:00,75.8,61.0,30.16,WSW,242,2.0,-999.0,60,-99.99,,,0.00,weatherlink.com 1.10,2013-07-30 16:26:00,
2013-07-30 12:41:00,76.3,61.0,30.16,NNE,22,0.0,-999.0,60,-99.99,,,0.00,weatherlink.com 1.10,2013-07-30 16:41:00,
2013-07-30 12:56:00,76.2,61.0,30.16,North,355,0.0,-999.0,59,-99.99,,,0.00,weatherlink.com 1.10,2013-07-30 16:56:00,
2013-07-30 13:11:00,77.2,62.0,30.15,SSW,207,0.0,-999.0,59,-99.99,,,0.00,weatherlink.com 1.10,2013-07-30 17:11:00,
2013-07-30 13:26:00,77.5,62.0,30.15,NW,314,0.0,-999.0,59,-99.99,,,0.00,weatherlink.com 1.10,2013-07-30 17:26:00,
2013-07-30 13:41:00,76.6,62.0,30.14,SW,227,1.0,-999.0,60,-99.99,,,0.00,weatherlink.com 1.10,2013-07-30 17:41:00,
2013-07-30 13:56:00,76.1,61.0,30.14,WNW,291,1.0,-999.0,60,-99.99,,,0.00,weatherlink.com 1.10,2013-07-30 17:56:00,
2013-07-30 14:11:00,77.0,60.0,30.14,North,360,0.0,-999.0,57,-99.99,,,0.00,weatherlink.com 1.10,2013-07-30 18:11:00,
2013-07-30 14:26:00,77.4,61.0,30.14,West,279,0.0,-999.0,58,-99.99,,,0.00,weatherlink.com 1.10,2013-07-30 18:26:00,
2013-07-30 14:41:00,76.4,62.0,30.14,SW,236,1.0,-999.0,61,-99.99,,,0.00,weatherlink.com 1.10,2013-07-30 18:41:00,
2013-07-30 15:11:00,74.0,60.0,30.13,West,261,0.0,-999.0,61,-99.99,,,0.00,weatherlink.com 1.10,2013-07-30 19:11:00,
2013-07-30 15:26:00,74.8,60.0,30.13,West,270,0.0,-999.0,61,-99.99,,,0.00,weatherlink.com 1.10,2013-07-30 19:26:00,
2013-07-30 15:41:00,74.7,60.0,30.13,West,262,3.0,-999.0,61,-99.99,,,0.00,weatherlink.com 1.10,2013-07-30 19:41:00,
2013-07-30 15:56:00,75.1,62.0,30.13,SW,218,0.0,-999.0,64,-99.99,,,0.00,weatherlink.com 1.10,2013-07-30 19:56:00,
2013-07-30 16:11:00,75.9,61.0,30.13,West,277,1.0,-999.0,61,-99.99,,,0.00,weatherlink.com 1.10,2013-07-30 20:11:00,
2013-07-30 16:26:00,76.7,63.0,30.14,WSW,241,1.0,-999.0,62,-99.99,,,0.00,weatherlink.com 1.10,2013-07-30 20:26:00,
2013-07-30 16:41:00,76.2,62.0,30.13,North,355,0.0,-999.0,62,-99.99,,,0.00,weatherlink.com 1.10,2013-07-30 20:41:00,
2013-07-30 16:56:00,75.7,62.0,30.13,SW,232,0.0,-999.0,63,-99.99,,,0.00,weatherlink.com 1.10,2013-07-30 20:56:00,
2013-07-30 17:11:00,75.0,61.0,30.13,WSW,257,0.0,-999.0,62,-99.99,,,0.00,weatherlink.com 1.10,2013-07-30 21:11:00,
2013-07-30 17:26:00,74.6,61.0,30.13,NNW,342,0.0,-999.0,62,-99.99,,,0.00,weatherlink.com 1.10,2013-07-30 21:26:00,
2013-07-30 17:41:00,75.0,60.0,30.13,SSE,155,2.0,-999.0,60,-99.99,,,0.00,weatherlink.com 1.10,2013-07-30 21:41:00,
2013-07-30 17:56:00,75.5,61.0,30.12,SW,219,1.0,-999.0,60,-99.99,,,0.00,weatherlink.com 1.10,2013-07-30 21:56:00,
2013-07-30 18:11:00,74.7,59.0,30.13,North,355,1.0,-999.0,59,-99.99,,,0.00,weatherlink.com 1.10,2013-07-30 22:11:00,
2013-07-30 18:26:00,73.8,60.0,30.13,North,11,0.0,-999.0,62,-99.99,,,0.00,weatherlink.com 1.10,2013-07-30 22:26:00,
2013-07-30 18:41:00,73.3,59.0,30.13,NNE,21,0.0,-999.0,62,-99.99,,,0.00,weatherlink.com 1.10,2013-07-30 22:41:00,
2013-07-30 18:56:00,72.6,60.0,30.14,NNE,21,0.0,-999.0,64,-99.99,,,0.00,weatherlink.com 1.10,2013-07-30 22:56:00,
2013-07-30 19:11:00,72.3,60.0,30.13,NNE,21,0.0,-999.0,65,-99.99,,,0.00,weatherlink.com 1.10,2013-07-30 23:11:00,
2013-07-30 19:26:00,71.9,60.0,30.13,NNE,21,0.0,-999.0,66,-99.99,,,0.00,weatherlink.com 1.10,2013-07-30 23:26:00,
2013-07-30 19:56:00,71.1,60.0,30.12,NNE,21,0.0,-999.0,67,-99.99,,,0.00,weatherlink.com 1.10,2013-07-30 23:56:00,
2013-07-30 20:11:00,70.4,60.0,30.12,NNE,21,0.0,-999.0,69,-99.99,,,0.00,weatherlink.com 1.10,2013-07-31 00:11:00,
2013-07-30 20:41:00,68.4,60.0,30.12,NNE,21,0.0,-999.0,74,-99.99,,,0.00,weatherlink.com 1.10,2013-07-31 00:41:00,
2013-07-30 20:56:00,67.2,59.0,30.12,NNE,21,0.0,-999.0,76,-99.99,,,0.00,weatherlink.com 1.10,2013-07-31 00:56:00,
2013-07-30 21:11:00,66.0,59.0,30.13,NNE,21,0.0,-999.0,79,-99.99,,,0.00,weatherlink.com 1.10,2013-07-31 01:11:00,
2013-07-30 21:26:00,65.1,59.0,30.13,NNE,21,0.0,-999.0,81,-99.99,,,0.00,weatherlink.com 1.10,2013-07-31 01:26:00,
2013-07-30 21:41:00,64.4,59.0,30.13,NNE,21,0.0,-999.0,82,-99.99,,,0.00,weatherlink.com 1.10,2013-07-31 01:41:00,
2013-07-30 21:56:00,63.8,59.0,30.13,NNE,21,0.0,-999.0,84,-99.99,,,0.00,weatherlink.com 1.10,2013-07-31 01:56:00,
2013-07-30 22:11:00,63.1,59.0,30.14,NNE,21,0.0,-999.0,86,-99.99,,,0.00,weatherlink.com 1.10,2013-07-31 02:11:00,
2013-07-30 22:26:00,62.5,59.0,30.13,NNE,21,0.0,-999.0,87,-99.99,,,0.00,weatherlink.com 1.10,2013-07-31 02:26:00,
2013-07-30 22:41:00,62.1,58.0,30.14,NNE,21,0.0,-999.0,87,-99.99,,,0.00,weatherlink.com 1.10,2013-07-31 02:41:00,
2013-07-30 22:56:00,61.8,58.0,30.14,NNE,21,0.0,-999.0,88,-99.99,,,0.00,weatherlink.com 1.10,2013-07-31 02:56:00,
2013-07-30 23:11:00,61.4,58.0,30.14,NNE,21,0.0,-999.0,88,-99.99,,,0.00,weatherlink.com 1.10,2013-07-31 03:11:00,
2013-07-30 23:41:00,60.7,58.0,30.14,NNE,21,0.0,-999.0,89,-99.99,,,0.00,weatherlink.com 1.10,2013-07-31 03:41:00,
2013-07-30 23:56:00,60.2,57.0,30.14,NNE,21,0.0,-999.0,90,-99.99,,,0.00,weatherlink.com 1.10,2013-07-31 03:56:00,